Home > Weather > Buchs > Past weeks

Flag for Switzerland Past Weather in Buchs, St. Gallen, Switzerland — Yesterday and Last 2 Weeks

Now
64 °F

Mild.


Feels Like: 64 °F
Forecast: 63 / 79 °F
Wind: 2 mph from Southwest

Location: Vaduz

Current Time: Jul 26, 2016 at 4:47:43 AM

Latest Report: Jul 26, 2016 at 3:00 AM


Visibility: N/A

Pressure: 30.13 "Hg

Humidity: 93%

Dew Point: 62 °F

Location of BuchsLocation

Past Weather in Buchs — Graph

°F

Buchs Temperature Yesterday

Maximum temperature yesterday: 79 °F (at 4:00 PM)
Minimum temperature yesterday: 62 °F (at 2:00 AM)
Average temperature yesterday: 68 °F

High & Low Weather Summary for the Past Weeks

 TemperatureHumidityPressure
High88 °F (Jul 20, 5:00 PM)96% (Jul 16, 4:00 AM)30.39 "Hg (Jul 16, 4:00 AM)
Low47 °F (Jul 16, 5:00 AM)39% (Jul 16, 5:00 PM)29.82 "Hg (Jul 11, 4:00 PM)
Average67 °F74%30.09 "Hg
* Reported Jul 11 3:00 AM — Jul 26 3:00 AM, Buchs, Weather by CustomWeather, © 2016

Note: Actual official high and low records may vary slightly from our data, if they occured in-between our weather recording intervals... More about our weather records

Advertising

Buchs Weather History for the Previous 24 Hours

Scroll right to see more
 ConditionsComfort  
Time TempWeatherWind HumidityBarometerVisibility
3:00 AM
Tue, Jul 26
64 °FMild.2 mph93%30.13 "HgN/A
2:00 AM63 °FFog.1 mph95%30.14 "Hg4 mi
1:00 AM64 °FMild.1 mph95%30.13 "HgN/A
12:00 AM64 °FMild.1 mph95%30.12 "HgN/A
11:00 PM
Mon, Jul 25
65 °FFog.1 mph95%30.12 "Hg4 mi
10:00 PM67 °FMild.1 mph93%30.12 "HgN/A
9:00 PM68 °FMild.1 mph94%30.10 "HgN/A
8:00 PM70 °FFog.2 mph88%30.09 "Hg9 mi
7:00 PM70 °FMild.1 mph88%30.08 "HgN/A
6:00 PM72 °FMild.2 mph77%30.05 "HgN/A
5:00 PM77 °FFog.3 mph67%30.02 "Hg7 mi
4:00 PM79 °FWarm.6 mph62%30.02 "HgN/A
3:00 PM76 °FMild.5 mph66%30.03 "HgN/A
2:00 PM76 °FMild.7 mph68%30.04 "HgN/A
1:00 PM76 °FMild.6 mph74%30.06 "HgN/A
12:00 PM72 °FMild.2 mph77%30.08 "HgN/A
11:00 AM68 °FFog.No wind89%30.10 "Hg7 mi
10:00 AM67 °FMild.No wind90%30.11 "HgN/A
9:00 AM65 °FMild.2 mph93%30.12 "HgN/A
8:00 AM64 °FOvercast.No wind95%30.13 "Hg6 mi
7:00 AM64 °FMild.No wind95%30.12 "HgN/A
6:00 AM63 °FMild.No wind95%30.12 "HgN/A
5:00 AM64 °FFog.1 mph93%30.11 "Hg4 mi
4:00 AM65 °FMild.3 mph92%30.11 "HgN/A
Weather by CustomWeather, © 2016

See weather overviewHow to use our weather pages